Showing default

COSMOS 2491, 39497

Orbit data source: Space-Track

COSMOS 2491, 39497 is a payload satellite owned by TsNIIKhM (CIS) in LEO that was launched on Wed, 25 Dec 2013 UTC via an ROKOT launch vehicle from the Plesetsk Missile And Space Complex (PKMTR). Payload-class satellites include a variety of spacecraft equipped with specific instruments for various scientific and technological missions. These include communications satellites like Starlink; space stations such as the ISS; scientific satellites like the Hubble; Earth observation satellites from companies like Planet Labs, Umbra, and HawkEye 360; GPS; miniature CubeSats for education and research; and military/defense satellites.

Loading next visibility...
Identifier
39497, 2013-076E
Orbit
LEO
Country
Flag of CISCIS
Related business
Manufacturer
TsNIIKhM
Mission
Non-operational Defense Technology
Bus & Motor
NIVELIR, Unknown motor
Mass
~100 kg wet, ~100 kg dry
Launch date (UTC)
2013-12-25 (13 years ago)
Launch vehicle
ROKOT
Launch site
Plesetsk Missile And Space Complex (PKMTR)
Object type
Payload
Rocket body
Debris
Shape & HBR
Hex Box, 0.7 m
Radar Cross Section
0.900 m², Medium (>0.1 m² and < 1m²)

Expand to show TLE details & history
Last TLE update: 6 hours ago

TLE from 6 hours ago
0 COSMOS 2491
1 39497U 13076E   26255.95733459  .00000024  00000-0  99871-4 0  9998
2 39497  82.4826 113.4932 0012198 259.6957 100.2748 12.43498572576163
Epoch: 2026-09-12T22:58Z
TLE epoch observation values (Epoch: 2026-09-12T22:58:33.708Z)
Latitude
-0.00001°
Longitude
136.89386°
Altitude
1,496.231 km
Speed
7.115 km/s
True Right ascension
07h 33m 58s
True Declination
0° 00' 00"
Sunlit
Object was in daylight at epoch
Visualization orbit readout
Latitude
Unknown
Longitude
Unknown
Altitude
Unknown
Speed
Unknown
Apparent Right ascension
Unknown
Apparent Declination
Unknown
Sunlit
N/A
Visualization observer readout
Local Sidereal Time
21:37:53
Azimuth
Unknown
Elevation
Unknown
Doppler factor
Unknown
Orbital elements
Apogee altitude
1,498.755 km
Perigee altitude
1,479.562 km
Semi-major axis
7,867.295 km
Eccentricity
0.00122
Inclination
82.4826°
RAAN
113.4932°
Arg. of periapsis
259.6957°
True anomaly
100.4123°
Mean anomaly
100.2748°
Eccentric anomaly
100.34355°
Mean motion
3.11032 °/min
Orbital period
115.74 mins
BSTAR
0.000099871
Loading maneuver chart data...
Computing Atmospheric mass density...
Loading historical data...
Loading historical data...
Loading historical data...
Loading historical data...
Loading historical data...
Loading historical data...
Loading historical data...

Documentation

Showing up to 5 results
|